Flag for Poland Weather past 2 weeks in Warsaw, Poland

Now
63 °F

Sunny.


Feels Like: 63 °F
Forecast: 40 / 54 °F
Wind: 9 mph from South

Location: Warsaw Okecie Airport

Current Time: Apr 28, 2015 at 9:04:55 AM

Latest Report: Apr 28, 2015 at 8:30 AM


Visibility: 10 mi

Pressure: 29.62 "Hg

Humidity: 68%

Dew point: 52 °F

Location of WarsawLocation

Historic Weather in Warsaw — Graph

°F

Warsaw temperature yesterday

Maximum temperature yesterday: 75 °F (at 4:30 PM)
Minimum temperature yesterday: 45 °F (at 3:30 AM)
Average temperature yesterday: 60 °F

Past Weeks' High & Low Weather Summary

 TemperatureHumidityPressure
High75 °F (Apr 27, 4:30 PM)100% (Apr 26, 7:30 PM)30.21 "Hg (Apr 26, 7:30 PM)
Low32 °F (Apr 18, 3:30 AM)27% (Apr 20, 2:30 PM)29.59 "Hg (Apr 27, 10:30 PM)
Average51 °F62%29.93 "Hg
* Reported Apr 13 7:00 AM — Apr 28 7:30 AM, Warsaw, Weather by CustomWeather, © 2015

Note: Actual official high and low records may vary slightly from our data, if they occured in-between our weather recording intervals... More about our weather records

Advertising

Warsaw weather history for previous 24 hours

 ConditionsComfort  
Time TempWeatherWind HumidityBarometerVisibility
7:30 AM
Tue, Apr 28
57 °FSunny.6 mph77%29.62 "Hg10 mi
7:00 AM55 °FSunny.6 mph82%29.62 "Hg10 mi
6:30 AM57 °FPassing clouds.6 mph77%29.62 "HgN/A
6:00 AM54 °FClear.5 mph88%29.59 "Hg10 mi
5:30 AM52 °FClear.6 mph88%29.59 "Hg10 mi
5:00 AM54 °FClear.5 mph88%29.59 "Hg10 mi
4:30 AM52 °FClear.3 mph88%29.59 "Hg10 mi
4:00 AM52 °FClear.6 mph88%29.59 "Hg10 mi
3:30 AM54 °FClear.5 mph82%29.59 "Hg10 mi
3:00 AM54 °FClear.7 mph82%29.59 "Hg10 mi
2:30 AM55 °FClear.6 mph82%29.59 "Hg10 mi
2:00 AM55 °FClear.7 mph82%29.59 "Hg10 mi
1:30 AM57 °FClear.6 mph77%29.59 "Hg10 mi
1:00 AM57 °FClear.7 mph77%29.59 "Hg10 mi
12:30 AM59 °FClear.7 mph72%29.59 "Hg10 mi
12:00 AM59 °FClear.8 mph72%29.59 "Hg10 mi
11:30 PM
Mon, Apr 27
59 °FClear.8 mph72%29.59 "Hg10 mi
11:00 PM63 °FClear.8 mph64%29.59 "Hg10 mi
10:30 PM63 °FClear.9 mph64%29.59 "Hg10 mi
10:00 PM66 °FClear.10 mph56%29.62 "Hg10 mi
9:30 PM64 °FClear.9 mph60%29.62 "Hg10 mi
9:00 PM66 °FClear.8 mph56%29.62 "Hg10 mi
8:30 PM68 °FSunny.9 mph53%29.62 "Hg10 mi
8:00 PM68 °FSunny.8 mph53%29.62 "Hg10 mi
7:30 PM70 °FSunny.9 mph50%29.62 "Hg10 mi
7:00 PM72 °FSunny.9 mph44%29.62 "Hg10 mi
6:30 PM73 °FSunny.10 mph44%29.62 "Hg10 mi
6:00 PM73 °FPassing clouds.10 mph44%29.65 "HgN/A
5:30 PM73 °FPassing clouds.10 mph44%29.65 "HgN/A
5:00 PM73 °FSunny.13 mph44%29.65 "Hg10 mi
4:30 PM75 °FSunny.12 mph41%29.65 "Hg10 mi
4:00 PM73 °FSunny.10 mph47%29.68 "Hg10 mi
3:30 PM73 °FPassing clouds.8 mph44%29.68 "HgN/A
3:00 PM73 °FPassing clouds.12 mph41%29.68 "HgN/A
2:30 PM73 °FPassing clouds.12 mph44%29.68 "HgN/A
2:00 PM72 °FPassing clouds.12 mph53%29.71 "HgN/A
1:30 PM72 °FPassing clouds.13 mph50%29.71 "HgN/A
1:00 PM72 °FPassing clouds.14 mph47%29.71 "HgN/A
12:30 PM70 °FPassing clouds.13 mph53%29.71 "HgN/A
12:00 PM68 °FPassing clouds.14 mph56%29.71 "HgN/A
11:30 AM66 °FPassing clouds.12 mph64%29.74 "HgN/A
11:00 AM64 °FPassing clouds.12 mph68%29.74 "HgN/A
10:30 AM63 °FSunny.8 mph77%29.74 "Hg10 mi
10:00 AM61 °FPassing clouds.7 mph77%29.74 "HgN/A
9:30 AM61 °FSunny.8 mph77%29.74 "Hg10 mi
9:00 AM57 °FSunny.8 mph88%29.77 "Hg10 mi
Weather by CustomWeather, © 2015

See weather overviewHow to use our weather pages